Regional Weather Roundup
Issued by NWS

Home | Current Version | Previous Version | Text Only | Print | Product List | Glossary Off
Versions: 1 2 3 4 5 6 7 8 9 10 11 12 13 14 15 16 17 18 19 20 21 22 23 24 25 26 27

000
ASUS45 KPSR 171110
RWRAZ

ARIZONA HOURLY REGIONAL WEATHER ROUNDUP
NATIONAL WEATHER SERVICE PHOENIX AZ
400 AM MST TUE JAN 17 2017

NOTE: FAIR INDICATES FEW OR NO CLOUDS BELOW 12,000 FEET WITH NO
SIGNIFICANT WEATHER AND/OR OBSTRUCTIONS TO VISIBILITY.

AZZ001>003-036-171200-
NORTHWEST ARIZONA

CITY           SKY/WX    TMP DP  RH WIND       PRES   REMARKS
KINGMAN        CLEAR     33  21  61 E8        30.10R WCI  26
$$

AZZ004>008-015-016-018-171200-
NORTH CENTRAL ARIZONA

CITY           SKY/WX    TMP DP  RH WIND       PRES   REMARKS
GRAND CANYON   CLEAR     21  19  92 CALM      30.09F
WILLIAMS       CLEAR     25  21  86 SE7       30.07S WCI  17
PRESCOTT       FOG       33  33 100 CALM      30.06F VSB 1/4
FLAGSTAFF      PTCLDY    25  22  88 NE3       30.07S
PAYSON         MOCLDY    34  32  93 CALM      30.07F
PAGE           CLEAR     35  26  69 SE5       30.12R WCI  31
$$

AZZ009>014-017-171200-
NORTHEAST ARIZONA

CITY           SKY/WX    TMP DP  RH WIND       PRES   REMARKS
WINSLOW        CLEAR     32  30  92 W3        30.08S
SAINT JOHNS    CLOUDY    34  34 100 SW3       30.06S
SHOW LOW       CLOUDY    32  30  93 CALM      30.07F
$$

AZZ023-171200-
GREATER PHOENIX AREA

CITY           SKY/WX    TMP DP  RH WIND       PRES   REMARKS
PHOENIX        PTCLDY    48  42  80 CALM      30.01F
BUCKEYE          N/A     41  41 100 N7        30.03F
LUKE AFB       CLEAR     44  39  81 N3        30.01F
DEER VALLEY    CLEAR     47  42  83 NE8       30.01F
SCOTTSDALE     CLEAR     44  40  85 CALM      30.03S
MESA-GATEWAY   CLEAR     41  41 100 E6        30.03S
$$

AZZ027-028-171200-
SOUTHWEST MARICOPA COUNTY AND PINAL COUNTY

CITY           SKY/WX    TMP DP  RH WIND       PRES   REMARKS
CASA GRANDE    CLEAR     41  39  93 CALM      30.03F FOG
$$

AZZ503-504-507>509-171200-
SOUTHEAST ARIZONA

CITY           SKY/WX    TMP DP  RH WIND       PRES   REMARKS
TUCSON         CLEAR     42  40  92 SE5       30.04S
DAVIS-MONTHAN  CLEAR     40  40 100 SE5       30.03S
NOGALES        CLEAR     35  33  92 E5        30.01F WCI  31
SIERRA VISTA   CLEAR     37  34  90 CALM      30.03F
DOUGLAS        CLEAR     30  30 100 N7        30.02F WCI  23
SAFFORD        CLEAR     35  34  96 E3        30.04S
$$

AZZ020-021-025-026-031-171200-
SOUTHWEST ARIZONA

CITY           SKY/WX    TMP DP  RH WIND       PRES   REMARKS
YUMA           CLEAR     48  29  47 N8        30.04F
$$

CAZ031-033-041-043-047-048-061-171200-
SOUTHERN CALIFORNIA

CITY           SKY/WX    TMP DP  RH WIND       PRES   REMARKS
DOWNTOWN L.A.  CLEAR     49  46  90 CALM      30.05S
L.A. AIRPORT   CLEAR     48  47  96 NE3       30.06S
SAN DIEGO      PTCLDY    51  47  86 CALM      30.07S
BURBANK        CLEAR     45  32  60 W3        30.05S
ONTARIO        CLEAR     46  34  62 W3        30.05S
RIVERSIDE      CLEAR     35  32  88 E7        30.06F WCI  29
PALM SPRINGS   CLEAR     46  31  55 N10       30.09S
EL CENTRO NAS  CLEAR     44  40  85 W7        30.08S
IMPERIAL       CLEAR     44  41  89 W7        30.06S
BLYTHE         CLEAR     45  33  63 W3        30.07S
NEEDLES        CLEAR     50  24  36 N9        30.09S
$$

NVZ020-UTZ003-171200-
SOUTHERN NEVADA-UTAH

CITY           SKY/WX    TMP DP  RH WIND       PRES   REMARKS
LAS VEGAS      CLEAR     40  22  48 CALM      30.13S
SALT LAKE CITY PTCLDY    20  15  81 CALM      30.28S
$$

NMZ009-TXZ055-171200-
NEW MEXICO-WEST TEXAS

CITY           SKY/WX    TMP DP  RH WIND       PRES   REMARKS
ALBUQUERQUE    CLOUDY    41  34  76 NE8       30.11S
EL PASO        PTCLDY    42  37  82 N10       30.03F
$$


........................KEY........................
SKY/WX - SKY CONDITION/WEATHER
TMP    - TEMPERATURE IN FAHRENHEIT
DP     - DEW POINT IN FAHRENHEIT
RH     - RELATIVE HUMIDITY IN PERCENT
WIND   - DIRECTION AND SPEED IN MILES PER HOUR (MPH)
VRB    - VARIABLE WIND DIRECTION
PRES   - MEAN SEA LEVEL PRESSURE IN INCHES OF MERCURY
         F - FALLING PRESSURE   R - RISING PRESSURE
         S - STEADY PRESSURE
VSB    - VISIBILITY IN MILES
HX     - HEAT INDEX IN FAHRENHEIT
WCI    - WIND CHILL INDEX IN FAHRENHEIT
TC     - TEMPERATURE IN CELSIUS WHICH IS ALSO KNOWN AS
         TEMPERATURE IN CENTIGRADE
AFB    - AIR FORCE BASE
         LUKE AFB IS LUKE AIR FORCE BASE
         DAVIS-MONTHAN IS DAVIS-MONTHAN AIR FORCE BASE
NAS    - NAVAL AIR STATION
         EL CENTRO NAS IS EL CENTRO NAVAL AIR STATION
N/A    - NOT AVAILABLE





USA.gov is the U.S. government's official web portal to all federal, state and local government web resources and services.